• In Deutschland
  • Länderverzeichnis
  • Für 7 Tage
  • Wassertemperatur
  • Satellitenkarten
  • Wetterkarte
  • Widgets
  • user-avatar
    Anmelden

    Stündliche Wetter Albany

    Heute, 25 Mai, Donnerstag

    Zeit Temperatur Niederschläge Wind Luftdruck Luftfeuchtigkeit
    00:00 +12°C° 0 mm 3 m/S 761 mmHg 94%
    01:00 +12°C° 0 mm 3 m/S 761 mmHg 95%
    02:00 +12°C° 0 mm 3 m/S 761 mmHg 96%
    03:00 +12°C° 0 mm 3 m/S 761 mmHg 95%
    04:00 +12°C° 0 mm 3 m/S 761 mmHg 95%
    05:00 +12°C° 0 mm 3 m/S 761 mmHg 95%
    06:00 +12°C° 0 mm 3 m/S 761 mmHg 94%
    07:00 +12°C° 0 mm 4 m/S 761 mmHg 92%
    08:00 +13°C° 0 mm 5 m/S 761 mmHg 87%
    09:00 +15°C° 0 mm 5 m/S 761 mmHg 78%
    10:00 +17°C° 0 mm 5 m/S 760 mmHg 70%
    11:00 +20°C° 0 mm 5 m/S 760 mmHg 61%
    12:00 +20°C° 0 mm 5 m/S 759 mmHg 58%
    13:00 +21°C° 0 mm 5 m/S 759 mmHg 55%
    14:00 +21°C° 0 mm 6 m/S 758 mmHg 52%
    15:00 +21°C° 0 mm 5 m/S 758 mmHg 56%
    16:00 +20°C° 0 mm 5 m/S 758 mmHg 61%
    17:00 +19°C° 0 mm 5 m/S 758 mmHg 65%
    18:00 +17°C° 0 mm 5 m/S 758 mmHg 68%
    19:00 +17°C° 0 mm 6 m/S 758 mmHg 71%
    20:00 +16°C° 0 mm 7 m/S 757 mmHg 74%
    21:00 +16°C° 0,3 mm 7 m/S 757 mmHg 76%
    22:00 +16°C° 0,3 mm 7 m/S 757 mmHg 79%
    23:00 +16°C° 0,3 mm 8 m/S 757 mmHg 81%

    Morgen, 26 Mai, Freitag

    Zeit Temperatur Niederschläge Wind Luftdruck Luftfeuchtigkeit
    00:00 +16°C° 0,1 mm 8 m/S 757 mmHg 79%
    01:00 +15°C° 0,1 mm 8 m/S 758 mmHg 78%
    02:00 +15°C° 0,1 mm 8 m/S 758 mmHg 77%
    03:00 +15°C° 0 mm 7 m/S 758 mmHg 75%
    04:00 +15°C° 0 mm 7 m/S 758 mmHg 73%
    05:00 +14°C° 0 mm 7 m/S 758 mmHg 71%
    06:00 +14°C° 0,1 mm 7 m/S 758 mmHg 70%
    07:00 +14°C° 0,1 mm 7 m/S 759 mmHg 69%
    08:00 +15°C° 0,1 mm 7 m/S 759 mmHg 68%
    09:00 +15°C° 0,1 mm 7 m/S 760 mmHg 67%
    10:00 +15°C° 0,1 mm 7 m/S 760 mmHg 65%
    11:00 +16°C° 0,1 mm 7 m/S 760 mmHg 64%
    12:00 +16°C° 0,1 mm 7 m/S 760 mmHg 63%
    13:00 +16°C° 0,1 mm 6 m/S 760 mmHg 63%
    14:00 +16°C° 0,1 mm 6 m/S 760 mmHg 62%
    15:00 +15°C° 0 mm 6 m/S 761 mmHg 64%
    16:00 +15°C° 0 mm 6 m/S 761 mmHg 67%
    17:00 +14°C° 0 mm 6 m/S 761 mmHg 69%
    18:00 +14°C° 0 mm 5 m/S 762 mmHg 70%
    19:00 +13°C° 0 mm 5 m/S 762 mmHg 70%
    20:00 +13°C° 0 mm 5 m/S 763 mmHg 70%
    21:00 +13°C° 0,1 mm 5 m/S 763 mmHg 70%
    22:00 +13°C° 0,1 mm 4 m/S 763 mmHg 70%
    23:00 +13°C° 0,1 mm 4 m/S 763 mmHg 69%

    übermorgen, 27 Mai, Samstag

    Zeit Temperatur Niederschläge Wind Luftdruck Luftfeuchtigkeit
    00:00 +13°C° 0,1 mm 4 m/S 763 mmHg 70%
    01:00 +13°C° 0,1 mm 4 m/S 763 mmHg 71%
    02:00 +12°C° 0,1 mm 4 m/S 763 mmHg 72%
    03:00 +12°C° 0 mm 4 m/S 763 mmHg 71%
    04:00 +13°C° 0 mm 4 m/S 763 mmHg 70%
    05:00 +13°C° 0 mm 4 m/S 763 mmHg 69%
    06:00 +13°C° 0 mm 4 m/S 764 mmHg 69%
    07:00 +13°C° 0 mm 4 m/S 764 mmHg 69%
    08:00 +13°C° 0 mm 4 m/S 765 mmHg 68%
    09:00 +13°C° 0,1 mm 3 m/S 765 mmHg 67%
    10:00 +14°C° 0,1 mm 3 m/S 765 mmHg 65%
    11:00 +14°C° 0,1 mm 3 m/S 765 mmHg 63%
    12:00 +14°C° 0,1 mm 3 m/S 765 mmHg 63%
    13:00 +14°C° 0,1 mm 3 m/S 765 mmHg 63%
    14:00 +16°C° 0,1 mm 3 m/S 764 mmHg 63%
    15:00 +14°C° 0 mm 3 m/S 765 mmHg 65%
    16:00 +14°C° 0 mm 3 m/S 765 mmHg 67%
    17:00 +14°C° 0 mm 3 m/S 765 mmHg 68%
    18:00 +13°C° 0 mm 3 m/S 766 mmHg 69%
    19:00 +13°C° 0 mm 3 m/S 766 mmHg 69%
    20:00 +14°C° 0 mm 2 m/S 766 mmHg 69%
    21:00 +14°C° 0 mm 2 m/S 766 mmHg 71%
    22:00 +13°C° 0 mm 2 m/S 767 mmHg 73%
    23:00 +13°C° 0 mm 2 m/S 767 mmHg 75%

    28 Mai, Sonntag

    Zeit Temperatur Niederschläge Wind Luftdruck Luftfeuchtigkeit
    00:00 +12°C° 0 mm 2 m/S 767 mmHg 75%
    01:00 +12°C° 0 mm 2 m/S 766 mmHg 76%
    02:00 +12°C° 0 mm 2 m/S 766 mmHg 76%
    03:00 +12°C° 0 mm 2 m/S 766 mmHg 77%
    04:00 +12°C° 0 mm 2 m/S 766 mmHg 77%
    05:00 +12°C° 0 mm 2 m/S 766 mmHg 78%
    06:00 +12°C° 0 mm 2 m/S 766 mmHg 77%
    07:00 +12°C° 0 mm 2 m/S 767 mmHg 77%
    08:00 +13°C° 0 mm 2 m/S 767 mmHg 77%
    09:00 +14°C° 0 mm 2 m/S 767 mmHg 71%
    10:00 +15°C° 0 mm 2 m/S 767 mmHg 65%
    11:00 +16°C° 0 mm 2 m/S 767 mmHg 59%
    12:00 +16°C° 0 mm 2 m/S 766 mmHg 58%
    13:00 +16°C° 0 mm 2 m/S 765 mmHg 57%
    14:00 +17°C° 0 mm 2 m/S 765 mmHg 56%
    15:00 +16°C° 0 mm 2 m/S 765 mmHg 60%
    16:00 +15°C° 0 mm 2 m/S 765 mmHg 64%
    17:00 +14°C° 0 mm 2 m/S 765 mmHg 68%
    18:00 +13°C° 0 mm 2 m/S 765 mmHg 74%
    19:00 +12°C° 0 mm 2 m/S 765 mmHg 81%
    20:00 +9°C° 0 mm 2 m/S 765 mmHg 87%
    21:00 +9°C° 0 mm 2 m/S 765 mmHg 86%
    22:00 +9°C° 0 mm 2 m/S 765 mmHg 86%
    23:00 +9°C° 0 mm 2 m/S 765 mmHg 85%

    29 Mai, Montag

    Zeit Temperatur Niederschläge Wind Luftdruck Luftfeuchtigkeit
    00:00 +9°C° 0 mm 2 m/S 765 mmHg 85%
    01:00 +9°C° 0 mm 3 m/S 765 mmHg 85%
    02:00 +9°C° 0 mm 3 m/S 764 mmHg 84%
    03:00 +9°C° 0 mm 3 m/S 764 mmHg 85%
    04:00 +9°C° 0 mm 3 m/S 764 mmHg 85%
    05:00 +9°C° 0 mm 3 m/S 764 mmHg 85%
    06:00 +10°C° 0 mm 3 m/S 764 mmHg 83%
    07:00 +10°C° 0 mm 4 m/S 764 mmHg 81%
    08:00 +11°C° 0 mm 4 m/S 765 mmHg 79%
    09:00 +12°C° 0 mm 4 m/S 765 mmHg 73%
    10:00 +14°C° 0 mm 4 m/S 765 mmHg 67%
    11:00 +17°C° 0 mm 4 m/S 765 mmHg 61%
    12:00 +17°C° 0,1 mm 4 m/S 765 mmHg 63%
    13:00 +17°C° 0,1 mm 4 m/S 764 mmHg 65%
    14:00 +17°C° 0,1 mm 4 m/S 764 mmHg 68%
    15:00 +15°C° 0 mm 4 m/S 764 mmHg 73%
    16:00 +14°C° 0 mm 4 m/S 764 mmHg 77%
    17:00 +14°C° 0 mm 4 m/S 765 mmHg 82%
    18:00 +13°C° 0 mm 5 m/S 765 mmHg 83%
    19:00 +13°C° 0 mm 5 m/S 766 mmHg 84%
    20:00 +13°C° 0 mm 5 m/S 766 mmHg 86%
    21:00 +13°C° 0 mm 5 m/S 766 mmHg 85%
    22:00 +13°C° 0 mm 5 m/S 766 mmHg 85%
    23:00 +13°C° 0 mm 5 m/S 766 mmHg 85%

    30 Mai, Dienstag

    Zeit Temperatur Niederschläge Wind Luftdruck Luftfeuchtigkeit
    00:00 +13°C° 0 mm 5 m/S 766 mmHg 84%
    01:00 +13°C° 0 mm 5 m/S 765 mmHg 84%
    02:00 +13°C° 0 mm 5 m/S 765 mmHg 83%
    03:00 +13°C° 0 mm 5 m/S 765 mmHg 85%
    04:00 +12°C° 0 mm 5 m/S 765 mmHg 86%
    05:00 +11°C° 0 mm 6 m/S 765 mmHg 88%
    06:00 +11°C° 0 mm 6 m/S 765 mmHg 83%
    07:00 +11°C° 0 mm 7 m/S 765 mmHg 78%
    08:00 +11°C° 0 mm 7 m/S 765 mmHg 73%
    09:00 +12°C° 0 mm 7 m/S 764 mmHg 65%
    10:00 +14°C° 0 mm 7 m/S 764 mmHg 58%
    11:00 +16°C° 0 mm 7 m/S 763 mmHg 51%
    12:00 +17°C° 0 mm 7 m/S 762 mmHg 49%
    13:00 +19°C° 0 mm 6 m/S 762 mmHg 47%
    14:00 +20°C° 0 mm 6 m/S 761 mmHg 44%
    15:00 +20°C° 0 mm 5 m/S 761 mmHg 48%
    16:00 +19°C° 0 mm 4 m/S 761 mmHg 51%
    17:00 +18°C° 0 mm 4 m/S 761 mmHg 55%
    18:00 +18°C° 0 mm 4 m/S 761 mmHg 55%
    19:00 +17°C° 0 mm 4 m/S 761 mmHg 56%
    20:00 +17°C° 0 mm 4 m/S 761 mmHg 56%
    21:00 +16°C° 0 mm 5 m/S 761 mmHg 55%
    22:00 +17°C° 0 mm 5 m/S 761 mmHg 53%
    23:00 +17°C° 0 mm 5 m/S 761 mmHg 51%
    Mehr zeigen